[[{"header":{"parameterUnit":"m.s-1","parameterCategory":1,"la1":30.2991,"la2":30.254,"lo1":-89.0895,"lo2":-89.0444,"dy":0.0017,"dx":0.0017,"nx":28,"ny":28,"refTime":"2023-10-31T03:00:00:Z","depth":0,"parameterNumber":2,"parameterNumberName":"U-component_of_WINDS"},"data":[0,0,0,0,0,0,0,0,0,0,0,0,0,0,0,0,0,0,0,0,0,0,0,0,0,0,0,0,0,0,0,0,0,0,0,0,0,0,0,0,0,0,0,0,0,0,0,0,0,0,0,0,0,0,0,0,0,0,1.5888,1.5888,0,1.5856,1.5855,1.5855,1.5834,1.5833,1.5833,1.5833,1.5798,1.5797,1.5797,0,0,0,0,0,0,0,0,0,0,0,0,0,1.5931,1.5931,1.5888,1.5888,1.5887,1.5856,1.5855,1.5855,1.5834,1.5833,1.5833,1.5833,1.5798,1.5797,1.5796,0,0,0,0,0,0,0,0,0,0,0,0,0,1.5907,1.5931,1.5888,1.5873,1.5871,1.5856,1.5855,1.5855,1.5834,1.5833,1.5833,1.5833,1.5799,1.5798,1.5796,1.5793,0,0,1.5793,1.5792,0,0,0,0,0,0,0,0,1.5909,1.5906,1.5876,1.5874,1.5872,1.5849,1.5858,1.5834,1.5834,1.5848,1.5833,1.5833,1.5815,1.5812,1.5807,1.5791,1.579,1.5793,1.5792,1.5791,1.5791,0,0,0,0,0,0,0,1.591,1.5907,1.5875,1.5875,1.5873,1.5868,1.5864,1.5853,1.5833,1.5847,1.5845,1.5842,1.5814,1.5808,1.5806,1.5789,1.5793,1.5791,1.5791,1.579,1.577,1.577,0,0,0,0,0,0,1.5915,1.5908,1.5876,1.5874,1.589,1.5867,1.5863,1.5856,1.5833,1.5829,1.5842,1.5841,1.581,1.5807,1.5804,1.5799,1.5791,1.579,1.5789,1.577,1.577,1.577,0,0,0,0,0,0,1.5916,1.5912,1.5878,1.5891,1.5886,1.5867,1.5859,1.5856,1.585,1.5829,1.5825,1.5839,1.581,1.5806,1.5796,1.5797,1.579,1.5788,1.577,1.577,1.577,1.5788,0,0,0,0,0,0,1.5917,1.5912,1.5911,1.5891,1.5886,1.587,1.5859,1.5855,1.5848,1.5846,1.5826,1.5822,1.5809,1.5798,1.5795,1.5796,1.5788,1.577,1.577,1.577,1.5787,1.5789,1.579,0,0,0,0,0,1.5918,1.5917,1.5911,1.5907,1.5883,1.587,1.5867,1.5852,1.5848,1.5846,1.5833,1.5823,1.5798,1.5797,1.5794,1.5794,1.5769,1.577,1.577,1.5787,1.5789,1.579,0,0,0,0,0,0,1.5936,1.5914,1.5907,1.5899,1.5887,1.5867,1.5864,1.5855,1.5843,1.5842,1.5824,1.582,1.5812,1.5802,1.5801,1.579,1.5783,1.5782,1.5796,1.5798,1.58,1.5802,1.5787,0,0,0,0,0,1.5939,1.5931,1.5912,1.5906,1.5901,1.5884,1.5877,1.5867,1.5854,1.5848,1.5835,1.5822,1.5811,1.5804,1.5793,1.5786,1.5782,1.5785,1.5787,1.5788,1.5787,1.5784,1.5785,1.5772,1.5772,1.5772,0,0,1.5945,1.5932,1.5927,1.5909,1.5899,1.589,1.5879,1.587,1.5864,1.5847,1.5837,1.5827,1.5811,1.5803,1.5799,1.5794,1.579,1.5788,1.579,1.5788,1.5784,1.5786,1.5787,1.5772,1.5772,1.5772,0,0,1.5951,1.594,1.5935,1.5925,1.591,1.5899,1.5898,1.5879,1.5872,1.5862,1.5849,1.5841,1.5823,1.5813,1.5805,1.581,1.58,1.5807,1.5814,1.5811,1.5812,1.5813,1.5814,1.5815,1.5807,1.5807,1.5807,0,1.596,1.5947,1.5933,1.5925,1.5918,1.5903,1.5898,1.5889,1.587,1.5866,1.5861,1.5839,1.5828,1.5817,1.5818,1.5813,1.5811,1.5808,1.5813,1.5814,1.5814,1.5815,1.5816,1.5807,1.5807,1.5807,1.5807,0,1.5959,1.595,1.5948,1.5931,1.5924,1.5917,1.5902,1.5896,1.5888,1.5877,1.5867,1.5853,1.584,1.5837,1.5828,1.5825,1.5823,1.5816,1.5808,1.5816,1.5817,1.5818,1.5809,1.5808,1.5808,1.5808,0,0,1.5973,1.5951,1.595,1.5943,1.5925,1.5918,1.5912,1.5899,1.5894,1.5883,1.5876,1.5862,1.5856,1.5848,1.5838,1.5835,1.584,1.5828,1.5828,1.5831,1.5836,1.5841,1.5842,1.5834,1.5834,1.5834,1.5837,0,1.5977,1.5964,1.5952,1.5943,1.5935,1.5922,1.5916,1.5905,1.5896,1.5887,1.5877,1.5867,1.586,1.5855,1.5852,1.584,1.584,1.5839,1.5827,1.5827,1.583,1.5842,1.5847,1.5851,1.5838,1.5838,1.5838,0,1.5978,1.5968,1.5959,1.5944,1.594,1.5935,1.5923,1.5915,1.5903,1.5896,1.5887,1.5877,1.587,1.5864,1.5853,1.5853,1.5848,1.5841,1.5841,1.5838,1.5832,1.5839,1.5852,1.5852,1.5838,1.5838,1.5838,0,1.5989,1.5974,1.5966,1.596,1.5942,1.5939,1.5931,1.5919,1.5912,1.5902,1.5898,1.5887,1.588,1.5872,1.5859,1.5856,1.585,1.5843,1.5844,1.5844,1.5842,1.5842,1.5853,1.584,1.584,1.584,1.584,0,1.5994,1.5989,1.5971,1.5966,1.5961,1.5947,1.5942,1.5933,1.5922,1.5915,1.5904,1.5898,1.5882,1.5874,1.5864,1.5857,1.5854,1.5849,1.5846,1.5849,1.585,1.5844,1.5843,1.584,1.584,1.584,1.584,0,1.6005,1.5993,1.5984,1.5968,1.5964,1.596,1.5947,1.5942,1.5933,1.5925,1.5922,1.5907,1.5897,1.5884,1.5871,1.5864,1.5858,1.5854,1.5862,1.586,1.5862,1.5862,1.5869,1.5869,1.5857,1.5857,1.5857,0,1.6008,1.6004,1.5988,1.5983,1.5976,1.5968,1.5962,1.5949,1.5943,1.5929,1.5926,1.5916,1.5907,1.5892,1.588,1.587,1.5865,1.5869,1.5863,1.5867,1.5865,1.5865,1.5864,1.5869,1.587,1.587,1.587,0,1.6015,1.6009,1.6001,1.5991,1.5984,1.5975,1.5966,1.5962,1.5948,1.5942,1.5932,1.5925,1.5912,1.5902,1.589,1.5882,1.5874,1.5872,1.5871,1.5874,1.5879,1.5876,1.5865,1.5871,1.5871,1.5871,1.5871,1.5871,1.6021,1.6017,1.6006,1.5997,1.5989,1.5981,1.5976,1.5966,1.5958,1.5947,1.594,1.5931,1.5919,1.5903,1.5896,1.5888,1.5885,1.5884,1.5884,1.5884,1.5885,1.5881,1.5886,1.5886,1.5886,1.5886,1.5886,0,1.6027,1.6019,1.6012,1.6,1.5993,1.5987,1.5976,1.5971,1.5963,1.5954,1.5946,1.5935,1.5926,1.5914,1.5903,1.59,1.5896,1.5898,1.5897,1.5896,1.5889,1.589,1.5901,1.5901,1.5901,1.5901,1.5901,1.5901,1.6029,1.6022,1.6016,1.6005,1.5997,1.5989,1.5983,1.5976,1.5968,1.5957,1.595,1.5942,1.5932,1.5921,1.5912,1.5909,1.5906,1.5909,1.5904,1.5897,1.5896,1.5895,1.5896,1.5908,1.5908,1.5911,1.5911,1.5911]},{"header":{"parameterUnit":"m.s-1","parameterCategory":1,"la1":30.2991,"la2":30.254,"lo1":-89.0895,"lo2":-89.0444,"dy":0.0017,"dx":0.0017,"nx":28,"ny":28,"refTime":"2023-10-31T03:00:00:Z","depth":0,"parameterNumber":3,"parameterNumberName":"V-component_of_WINDS"},"data":[0,0,0,0,0,0,0,0,0,0,0,0,0,0,0,0,0,0,0,0,0,0,0,0,0,0,0,0,0,0,0,0,0,0,0,0,0,0,0,0,0,0,0,0,0,0,0,0,0,0,0,0,0,0,0,0,0,0,-8.8535,-8.8537,0,-8.8725,-8.8727,-8.873,-8.8653,-8.8649,-8.8644,-8.864,-8.8827,-8.8836,-8.8845,0,0,0,0,0,0,0,0,0,0,0,0,0,-8.8099,-8.8107,-8.8535,-8.8537,-8.854,-8.8725,-8.8728,-8.873,-8.8654,-8.8649,-8.8643,-8.8638,-8.8824,-8.8834,-8.8845,0,0,0,0,0,0,0,0,0,0,0,0,0,-8.8288,-8.811,-8.8535,-8.8524,-8.8525,-8.8724,-8.8728,-8.8731,-8.8655,-8.8648,-8.8642,-8.8636,-8.882,-8.8833,-8.8847,-8.9065,0,0,-8.8889,-8.8895,0,0,0,0,0,0,0,0,-8.8278,-8.8304,-8.8523,-8.8525,-8.8527,-8.8659,-8.8642,-8.8843,-8.8657,-8.8606,-8.864,-8.8632,-8.8776,-8.8793,-8.8843,-8.9074,-8.9082,-8.889,-8.8898,-8.8904,-8.8908,0,0,0,0,0,0,0,-8.8265,-8.8296,-8.861,-8.8527,-8.8529,-8.8508,-8.8527,-8.868,-8.8725,-8.861,-8.8605,-8.8629,-8.8775,-8.883,-8.8846,-8.9084,-8.889,-8.8902,-8.891,-8.8915,-8.9504,-8.9511,0,0,0,0,0,0,-8.8252,-8.8285,-8.8604,-8.8616,-8.8384,-8.8521,-8.8543,-8.8623,-8.8724,-8.8733,-8.8634,-8.8624,-8.881,-8.8831,-8.8853,-8.9115,-8.8904,-8.8917,-8.8925,-8.9497,-8.9506,-8.9514,0,0,0,0,0,0,-8.8243,-8.8281,-8.8596,-8.8449,-8.8488,-8.8536,-8.8626,-8.863,-8.8685,-8.8742,-8.8749,-8.8682,-8.8805,-8.8834,-8.9013,-8.9121,-8.8923,-8.8935,-8.9488,-8.9499,-8.951,-8.9642,0,0,0,0,0,0,-8.8231,-8.8279,-8.8364,-8.8452,-8.8496,-8.8757,-8.8633,-8.8639,-8.871,-8.8699,-8.8789,-8.8797,-8.8802,-8.8994,-8.9027,-8.9136,-8.8946,-8.9478,-8.9493,-8.9506,-8.9628,-8.9656,-8.968,0,0,0,0,0,-8.8216,-8.8391,-8.8368,-8.8407,-8.8604,-8.8763,-8.8788,-8.8792,-8.8719,-8.8803,-8.884,-8.8794,-8.9104,-8.9013,-8.905,-8.9164,-8.9472,-8.9489,-8.9505,-8.9617,-8.9651,-8.968,0,0,0,0,0,0,-8.8311,-8.8403,-8.8378,-8.8588,-8.8669,-8.875,-8.8857,-8.8828,-8.8929,-8.8914,-8.8912,-8.8933,-8.912,-8.9159,-8.9056,-8.9381,-8.9276,-8.9301,-8.9348,-8.9381,-8.9407,-8.9393,-8.8957,0,0,0,0,0,-8.8357,-8.8481,-8.8553,-8.8731,-8.8773,-8.8809,-8.8878,-8.8875,-8.8957,-8.899,-8.9039,-8.9119,-8.9234,-8.9309,-8.9418,-8.9633,-8.9652,-8.973,-8.9756,-8.9778,-8.9799,-8.9916,-8.9952,-8.9569,-8.9568,-8.9568,0,0,-8.8452,-8.8518,-8.8595,-8.8752,-8.8814,-8.8941,-8.8838,-8.8975,-8.9069,-8.9009,-8.9184,-8.9223,-8.9311,-8.9511,-8.96,-8.9549,-8.9909,-8.9799,-8.9815,-8.9826,-8.9937,-8.9974,-9.0006,-8.958,-8.9578,-8.9576,0,0,-8.8691,-8.8753,-8.8909,-8.8974,-8.9071,-8.9093,-8.9131,-8.9217,-8.9242,-8.9417,-8.9376,-8.9485,-8.9683,-8.9748,-8.9807,-9.0072,-9.0034,-9.0107,-9.0243,-9.0358,-9.0388,-9.0415,-9.0509,-9.0544,-9.0129,-9.0129,-9.0129,0,-8.8796,-8.8988,-8.8992,-8.9135,-8.9205,-8.916,-8.9317,-8.9379,-8.9505,-8.9553,-8.9495,-8.9744,-8.98,-9.0014,-9.0079,-9.0128,-9.0169,-9.0097,-9.0384,-9.0411,-9.0435,-9.0526,-9.0562,-9.0137,-9.0136,-9.0135,-9.0135,0,-8.9113,-8.9247,-8.9361,-8.9487,-8.957,-8.9719,-8.9743,-8.9826,-8.9816,-8.9844,-9.0022,-9.0088,-9.0211,-9.0261,-9.025,-9.0474,-9.0439,-9.0383,-9.0278,-9.0481,-9.0565,-9.06,-9.0149,-9.0146,-9.0144,-9.0142,0,0,-8.9417,-8.9545,-8.9587,-8.9645,-8.9748,-8.985,-8.9996,-9.0119,-9.019,-9.0278,-9.04,-9.057,-9.0519,-9.0586,-9.0582,-9.0682,-9.0889,-9.0613,-9.0615,-9.0663,-9.1139,-9.1182,-9.1222,-9.0864,-9.0871,-9.0876,-9.1132,0,-8.9664,-8.9924,-8.9933,-9.0169,-9.0293,-9.0252,-9.038,-9.0456,-9.0486,-9.0593,-9.0624,-9.0746,-9.0668,-9.0709,-9.0806,-9.0843,-9.0984,-9.0825,-9.0976,-9.0981,-9.0956,-9.1266,-9.1312,-9.155,-9.1165,-9.1171,-9.1175,0,-8.9987,-9.009,-9.034,-9.0428,-9.0479,-9.0594,-9.0708,-9.0811,-9.0896,-9.091,-9.0987,-9.0969,-9.1116,-9.1007,-9.1209,-9.1101,-9.1163,-9.119,-9.1199,-9.1214,-9.1091,-9.1289,-9.1626,-9.1662,-9.1227,-9.1223,-9.1219,0,-9.0185,-9.0384,-9.0561,-9.0611,-9.0717,-9.0798,-9.0846,-9.0925,-9.0998,-9.1096,-9.1144,-9.1256,-9.1318,-9.1405,-9.1417,-9.1336,-9.1621,-9.1512,-9.1636,-9.1636,-9.1698,-9.1694,-9.205,-9.1737,-9.1737,-9.1736,-9.1735,0,-9.046,-9.0615,-9.0651,-9.0759,-9.0931,-9.0938,-9.1107,-9.1148,-9.1219,-9.1333,-9.1303,-9.141,-9.142,-9.1529,-9.1539,-9.1706,-9.1733,-9.1748,-9.1749,-9.1752,-9.175,-9.1792,-9.1776,-9.1746,-9.1744,-9.1742,-9.174,0,-9.071,-9.074,-9.093,-9.1016,-9.1041,-9.1164,-9.1236,-9.1339,-9.1366,-9.1511,-9.1545,-9.1587,-9.1715,-9.1736,-9.1885,-9.1892,-9.2091,-9.2074,-9.2064,-9.2062,-9.2185,-9.2174,-9.2581,-9.2635,-9.2287,-9.229,-9.2293,0,-9.0884,-9.1003,-9.1103,-9.1179,-9.1231,-9.1353,-9.1429,-9.144,-9.1519,-9.1626,-9.1716,-9.1841,-9.1942,-9.2147,-9.219,-9.2303,-9.229,-9.2425,-9.2306,-9.2305,-9.2292,-9.2286,-9.2297,-9.2447,-9.2451,-9.2454,-9.2457,0,-9.119,-9.12,-9.1312,-9.1431,-9.1523,-9.1615,-9.1702,-9.1765,-9.1787,-9.1878,-9.201,-9.2089,-9.2243,-9.2367,-9.248,-9.2526,-9.2496,-9.2494,-9.2529,-9.2533,-9.2522,-9.253,-9.2127,-9.2484,-9.2482,-9.248,-9.2478,-9.2477,-9.1408,-9.1512,-9.16,-9.1725,-9.1793,-9.1876,-9.1977,-9.2019,-9.213,-9.2259,-9.2257,-9.2402,-9.2483,-9.2633,-9.2687,-9.2799,-9.2755,-9.2805,-9.2818,-9.283,-9.2843,-9.2504,-9.2819,-9.2818,-9.2817,-9.2817,-9.2816,0,-9.1713,-9.1768,-9.1884,-9.2009,-9.2108,-9.2074,-9.2169,-9.2253,-9.2382,-9.2462,-9.2563,-9.2715,-9.2835,-9.2888,-9.3007,-9.3086,-9.3075,-9.3117,-9.3111,-9.3122,-9.2875,-9.2833,-9.3124,-9.3124,-9.3124,-9.3124,-9.3123,-9.3123,-9.1884,-9.2059,-9.2079,-9.2287,-9.2339,-9.2484,-9.2541,-9.2617,-9.2681,-9.2853,-9.2955,-9.299,-9.3059,-9.3182,-9.3291,-9.3303,-9.3348,-9.3396,-9.3402,-9.317,-9.3139,-9.311,-9.3071,-9.3406,-9.3406,-9.364,-9.3642,-9.3644]}]]